Flag for Singapore Weather past 2 weeks in Singapore, Singapore

Now
84 °F

Broken clouds.


Feels Like: 94 °F
Forecast: 81 / 90 °F
Wind: 8 mph from South

Location: Singapore / Paya Lebar

Current Time: Jul 7, 2015 at 8:44:29 AM

Latest Report: Jul 7, 2015 at 8:00 AM


Visibility: N/A

Pressure: 29.77 "Hg

Humidity: 79%

Dew point: 77 °F

Location of SingaporeLocation

Historic Weather in Singapore — Graph

°F

Singapore temperature yesterday

Maximum temperature yesterday: 90 °F (at 3:00 PM)
Minimum temperature yesterday: 82 °F (at 5:00 AM)
Average temperature yesterday: 86 °F

Past Weeks' High & Low Weather Summary

 TemperatureHumidityPressure
High91 °F (Jun 22, 1:00 PM)94% (Jul 4, 8:00 AM)29.98 "Hg (Jul 4, 8:00 AM)
Low73 °F (Jul 4, 8:00 AM)49% (Jun 30, 2:00 PM)29.71 "Hg (Jul 6, 4:00 PM)
Average86 °F72%29.84 "Hg
* Reported Jun 22 7:00 AM — Jul 7 7:00 AM, Singapore, Weather by CustomWeather, © 2015

Note: Actual official high and low records may vary slightly from our data, if they occured in-between our weather recording intervals... More about our weather records

Advertising

Singapore weather history for previous 24 hours

 ConditionsComfort  
Time TempWeatherWind HumidityBarometerVisibility
7:00 AM
Tue, Jul 7
84 °FPassing clouds.7 mph79%29.77 "HgN/A
6:00 AM84 °FPassing clouds.9 mph79%29.74 "HgN/A
5:00 AM82 °FPassing clouds.8 mph84%29.74 "HgN/A
11:00 PM
Mon, Jul 6
84 °FPassing clouds.10 mph79%29.77 "HgN/A
10:00 PM84 °FPassing clouds.9 mph79%29.77 "HgN/A
9:00 PM86 °FPassing clouds.8 mph75%29.77 "HgN/A
8:00 PM86 °FPassing clouds.9 mph70%29.74 "HgN/A
7:00 PM86 °FPartly sunny.9 mph66%29.71 "HgN/A
6:00 PM88 °FPartly sunny.10 mph62%29.71 "HgN/A
5:00 PM90 °FPartly sunny.13 mph59%29.71 "HgN/A
4:00 PM90 °FPartly sunny.12 mph59%29.71 "HgN/A
3:00 PM90 °FPartly sunny.13 mph59%29.74 "HgN/A
2:00 PM88 °FBroken clouds.13 mph66%29.77 "HgN/A
1:00 PM86 °FSprinkles. Broken clouds.9 mph75%29.77 "HgN/A
12:00 PM88 °FBroken clouds.10 mph66%29.80 "HgN/A
11:00 AM88 °FBroken clouds.10 mph66%29.80 "HgN/A
10:00 AM86 °FPartly sunny.12 mph70%29.80 "HgN/A
9:00 AM84 °FPartly sunny.8 mph79%29.80 "HgN/A
8:00 AM84 °FPartly sunny.7 mph79%29.80 "HgN/A
Weather by CustomWeather, © 2015

See weather overviewHow to use our weather pages